FCYRRS OIBV-OMFJ

Flight info

Callsign FCYRRS
Flight time N/A
Altitude 6000
Route DRT
Aircraft BE58/L-SDE3/L

Departure

Time 2026-04-29 18:55
Airport Lavan Airport (OIBV)

Arrival

Time N/A
Airport Fujairah International Airport (OMFJ)
Time Latitude Longitude Altitude Speed Heading
2026-04-29 18:53 26.80803 53.36127 71 ft 0 kts 114°
2026-04-29 18:53 26.80799 53.36158 74 ft 7 kts 56°
2026-04-29 18:54 26.80830 53.36145 72 ft 5 kts 292°
2026-04-29 18:54 26.80897 53.35954 75 ft 61 kts 291°
2026-04-29 18:54 26.81109 53.35320 72 ft 107 kts 291°
2026-04-29 18:54 26.81401 53.34487 229 ft 120 kts 291°
2026-04-29 18:55 26.81767 53.33657 559 ft 117 kts 320°
2026-04-29 18:55 26.82580 53.33585 711 ft 140 kts 29°
2026-04-29 18:55 26.82929 53.34588 828 ft 158 kts 108°
2026-04-29 18:55 26.82101 53.35424 862 ft 171 kts 152°
2026-04-29 18:56 26.81102 53.36168 1010 ft 168 kts 133°
2026-04-29 18:56 26.80534 53.37291 1134 ft 167 kts 105°
2026-04-29 18:56 26.80145 53.38562 1069 ft 180 kts 103°
2026-04-29 18:56 26.79807 53.39890 1244 ft 172 kts 100°
2026-04-29 18:57 26.79781 53.41093 1717 ft 137 kts 69°
2026-04-29 18:57 26.80056 53.42032 2157 ft 121 kts 57°
2026-04-29 18:57 26.80445 53.42916 2268 ft 134 kts 51°
2026-04-29 18:57 26.80925 53.43783 2511 ft 133 kts 50°
2026-04-29 18:58 26.81415 53.44720 2512 ft 149 kts 52°
2026-04-29 18:58 26.82021 53.45807 1998 ft 180 kts 51°
2026-04-29 18:58 26.82760 53.47036 1449 ft 195 kts 51°
2026-04-29 18:58 26.83441 53.48271 1432 ft 184 kts 58°
2026-04-29 18:59 26.83982 53.49580 1190 ft 186 kts 60°
2026-04-29 18:59 26.84492 53.50922 972 ft 187 kts 66°
2026-04-29 18:59 26.84832 53.52278 1064 ft 177 kts 73°
2026-04-29 18:59 26.85022 53.53621 1154 ft 173 kts 79°
2026-04-29 19:00 26.85110 53.54927 1375 ft 164 kts 80°
2026-04-29 19:00 26.85163 53.56183 1567 ft 158 kts 80°
2026-04-29 19:00 26.85187 53.57391 1784 ft 152 kts 81°
2026-04-29 19:00 26.85210 53.58555 2005 ft 146 kts 81°
2026-04-29 19:01 26.85234 53.59680 2239 ft 144 kts 81°
2026-04-29 19:01 26.85258 53.60800 2468 ft 144 kts 81°
2026-04-29 19:01 26.85284 53.61914 2691 ft 140 kts 81°
2026-04-29 19:01 26.85308 53.63002 2922 ft 140 kts 81°
2026-04-29 19:02 26.85325 53.64089 3146 ft 139 kts 81°
2026-04-29 19:02 26.85338 53.64800 3247 ft 141 kts 78°
2026-04-29 19:02 26.85463 53.66427 3054 ft 174 kts 77°
2026-04-29 19:02 26.85587 53.67844 2766 ft 190 kts 78°
2026-04-29 19:03 26.85712 53.69347 2483 ft 197 kts 79°
2026-04-29 19:03 26.85846 53.70883 2132 ft 200 kts 79°
2026-04-29 19:03 26.85984 53.72411 2119 ft 183 kts 79°
2026-04-29 19:03 26.86061 53.73759 2408 ft 166 kts 81°
2026-04-29 19:04 26.86110 53.75012 2639 ft 156 kts 82°
2026-04-29 19:04 26.86174 53.76194 2869 ft 149 kts 81°
2026-04-29 19:04 26.86239 53.77336 3098 ft 145 kts 81°
2026-04-29 19:04 26.86286 53.78452 3316 ft 142 kts 81°
2026-04-29 19:05 26.86316 53.79545 3533 ft 139 kts 81°
2026-04-29 19:05 26.86341 53.80619 3755 ft 137 kts 81°
2026-04-29 19:05 26.86379 53.81678 3979 ft 135 kts 81°
2026-04-29 19:05 26.86429 53.82734 4192 ft 136 kts 81°
2026-04-29 19:06 26.86492 53.83806 4354 ft 140 kts 80°
2026-04-29 19:06 26.86535 53.84879 4611 ft 135 kts 81°
2026-04-29 19:06 26.86648 53.87163 4686 ft 158 kts 81°
2026-04-29 19:07 26.86726 53.88402 4680 ft 165 kts 81°
2026-04-29 19:07 26.86782 53.89274 4677 ft 167 kts 81°